Lid_Strength_Index
3 3 2 3 2 2 2 2 2 2 2 2 2 2 2 3 4 5 10 5 1 -1 -1 2 2 2 2 5 4 4 10 12 10 11 10 6 7 5 4 6 5 4 5 4 2
3 3 3 3 3 2 2 2 2 2 2 2 2 1 1 2 6 9 3 -2 -1 -1 2 3 4 4 6 6 6 7 10 10 7 7 8 7 7 6 7 7 6 6 4 3 2
3 3 3 3 3 3 2 2 2 2 2 2 2 1 0 2 10 10 -2 -1 -1 -1 2 3 3 4 7 6 6 7 10 7 7 6 6 7 7 5 7 8 6 7 5 4 3
4 4 4 4 3 3 3 3 3 2 2 2 1 1 0 5 12 4 -1 -1 -1 0 2 3 5 6 7 8 6 8 6 6 6 5 6 7 6 7 6 6 4 4 4 4 4
4 4 4 4 4 4 3 3 3 3 3 2 2 0 4 10 8 1 -1 -0 0 2 4 4 6 6 8 7 7 8 7 6 5 5 5 5 7 7 6 5 4 4 4 4 4
4 4 4 4 4 4 3 3 3 3 3 2 1 0 5 12 7 -0 0 1 2 4 5 4 6 5 6 7 8 6 7 6 6 6 5 7 7 6 6 4 5 4 5 4 4
4 4 4 4 4 4 4 4 4 3 3 2 1 1 7 8 2 0 1 4 5 5 6 4 5 6 6 7 5 6 8 7 7 7 7 6 8 8 5 5 5 5 4 4 4
3 4 4 4 4 4 4 4 4 3 2 2 1 4 8 5 3 4 3 6 6 6 8 7 5 5 6 5 7 8 9 12 8 7 6 7 12 8 5 6 6 5 5 4 4
3 3 4 4 4 4 5 5 3 1 1 0 4 6 6 1 5 4 6 7 9 9 9 5 6 6 6 9 11 10 13 11 9 7 7 8 11 7 5 6 7 6 5 5 4
3 4 4 4 4 5 5 4 3 2 1 1 1 8 6 7 5 6 7 6 8 11 9 8 10 10 9 10 15 13 13 12 11 8 8 9 9 8 6 6 7 6 5 5 5
4 4 4 4 4 5 6 6 7 8 4 7 6 8 5 3 4 6 7 7 9 8 13 12 12 13 10 9 9 10 11 11 10 7 9 10 10 8 7 7 7 6 6 5 5
4 4 4 4 5 5 7 6 6 6 9 5 5 4 4 5 6 5 7 8 10 11 11 13 14 11 10 8 9 10 11 11 9 8 9 10 10 8 7 7 6 6 6 5 5
4 4 4 5 5 7 8 7 5 6 9 7 5 5 5 5 7 6 6 9 10 11 11 13 13 10 9 9 10 12 11 11 11 9 8 10 12 10 8 7 6 5 5 5 5
4 4 5 5 8 8 7 5 6 6 11 9 8 6 5 5 8 4 6 7 10 10 11 11 12 12 10 10 10 13 8 9 10 11 14 10 17 13 10 9 7 6 6 6 5
4 4 5 6 10 9 7 7 6 6 16 8 9 6 8 7 8 8 6 7 10 10 11 11 11 13 14 11 8 10 8 9 9 12 12 12 15 12 10 11 9 7 6 5 5
5 5 6 8 10 8 7 8 6 11 15 10 8 9 9 9 8 7 7 7 8 10 11 10 9 11 12 11 7 7 9 11 12 12 16 13 14 13 13 10 9 7 6 5 5
5 6 6 7 12 9 8 7 11 15 10 10 11 10 11 10 9 8 9 10 11 14 14 11 11 10 11 13 10 9 12 17 16 17 17 13 14 11 9 8 7 7 6 5 5
6 7 7 7 8 8 7 9 16 10 10 8 10 11 11 11 11 11 11 12 11 12 15 14 14 12 11 12 11 12 13 16 18 18 16 13 15 11 8 7 6 6 5 5 5
7 10 9 7 7 8 8 13 13 12 9 9 10 12 12 10 10 12 13 12 11 12 12 15 14 11 11 11 10 13 16 14 16 18 17 16 12 9 8 8 8 7 6 6 5
10 10 8 6 6 7 10 13 11 9 8 10 12 11 13 12 12 14 14 10 10 10 11 12 14 12 11 11 11 13 12 15 16 17 19 17 14 13 10 10 8 8 7 6 5
10 9 7 6 6 8 13 12 8 7 8 10 11 12 12 12 12 12 12 10 9 11 11 14 13 13 12 13 13 13 14 15 15 16 18 18 15 10 9 8 8 7 6 6 5
12 12 6 6 9 12 12 10 8 8 8 9 10 10 12 12 13 12 11 11 9 11 12 13 15 15 13 12 12 13 13 15 16 17 17 17 15 10 8 7 7 7 6 5 5
14 13 7 6 12 12 11 9 8 8 9 9 10 9 10 12 13 11 9 7 8 11 11 12 15 16 14 13 13 14 15 16 16 16 17 17 15 10 9 8 7 7 6 5 5
13 12 9 8 10 11 12 10 10 7 8 8 9 9 10 11 11 11 9 7 7 7 5 9 15 15 15 14 13 13 13 14 14 16 16 16 14 11 8 8 7 7 6 5 5
12 12 11 12 11 11 11 11 10 10 8 9 10 9 10 11 12 11 9 8 7 6 10 12 14 15 15 13 11 11 11 12 14 14 14 13 12 11 9 8 7 6 6 6 6
11 12 11 12 11 12 13 13 10 9 10 10 10 8 10 12 10 11 10 9 11 9 10 11 14 15 15 12 10 10 10 11 12 13 13 14 12 12 8 7 7 6 6 6 6
9 9 11 12 12 13 12 10 9 9 8 8 8 9 9 9 8 8 8 8 7 9 11 12 13 15 16 12 12 13 12 11 11 12 12 13 11 8 9 7 7 7 6 6 5